Regional Weather Roundup
Issued by NWS

Home | Current Version | Previous Version | Text Only | Print | Product List | Glossary On
Versions: 1 2 3 4 5 6 7 8 9 10 11 12 13 14 15 16 17 18 19 20 21 22 23 24 25 26 27 28 29 30 31 32 33 34 35 36 37 38 39 40 41 42 43 44 45 46 47 48 49 50
000
ASUS44 KBMX 010310
RWRAL

ALABAMA REGIONAL WEATHER ROUNDUP
NATIONAL WEATHER SERVICE BIRMINGHAM AL
1000 PM CDT SUN APR 30 2017

NOTE: "FAIR" INDICATES FEW OR NO CLOUDS BELOW 12,000 FEET
WITH NO SIGNIFICANT WEATHER AND/OR OBSTRUCTIONS TO VISIBILITY.

THE REMARK "TC" DENOTES TEMPERATURE IN DEGREES CELSIUS.

ALZ001>011-014-016>018-020-010400-
NORTH ALABAMA

CITY           SKY/WX    TMP DP  RH WIND       PRES   REMARKS
MUSCLE SHOALS  TSTM      68  63  84 S14       29.81F
HUNTSVILLE     CLOUDY    68  65  90 SE14      29.82F
DECATUR        CLOUDY    67  64  90 S15G24    29.83F
HALEYVILLE     LGT RAIN  64  63  94 S10G18    29.86R
GADSDEN        LGT RAIN N/A N/A N/A SE10G18   29.87F
$$

ALZ012-013-022-023-030>036-040>044-010400-
WEST CENTRAL ALABAMA

CITY           SKY/WX    TMP DP  RH WIND       PRES   REMARKS
TUSCALOOSA     CLOUDY    67  65  93 S7        29.86R
$$

ALZ015-024>027-033>036-040>044-010400-
CENTRAL ALABAMA

CITY           SKY/WX    TMP DP  RH WIND       PRES   REMARKS
BIRMINGHAM     CLOUDY    69  64  84 S8G20     29.89R
MONTGOMERY     CLOUDY    69  63  81 SE9       29.91F
SHELBY CO ARPT MOCLDY    67  66  97 S6        29.88R
MAXWELL AFB    CLOUDY    68  67  96 SE10      29.90F
GREENVILLE     FAIR      69  65  86 S12G20    29.95R
$$

ALZ019-021-028-029-037-038-045>048-010400-
EAST CENTRAL ALABAMA

CITY           SKY/WX    TMP DP  RH WIND       PRES   REMARKS
ANNISTON       LGT RAIN  67  66  97 NE8       29.93F
ALEXANDER CITY LGT RAIN  66  65  97 SE6       29.96F
AUBURN         LGT RAIN  67  66  97 S6        30.04F
$$

ALZ051>064-010400-
SOUTHWEST ALABAMA

CITY           SKY/WX    TMP DP  RH WIND       PRES   REMARKS
MOBILE         TSTM      74  72  93 SE17G30   29.89R FOG
BROOKLEY FIELD TSTM      75  74  96 SE17G30   29.94R
EVERGREEN      LGT RAIN  69  66  90 S12       29.99R
$$

ALZ049-050-065>069-010400-
SOUTHEAST ALABAMA

CITY           SKY/WX    TMP DP  RH WIND       PRES   REMARKS
DOTHAN         CLOUDY    76  70  82 S8        30.04S
OZARK          CLOUDY    77  70  78 S6        30.02R
TROY           TSTM      67  67 100 S5        30.02S
EUFAULA        MOCLDY    78  69  73 S5        30.00S
$$



USA.gov is the U.S. government's official web portal to all federal, state and local government web resources and services.